When you browse on this site, cookies collect data to enhance your experience and personalize the content and advertising you see.
Visit our Privacy Policy to learn more. By continuing to use the site, you agree to this use of cookies and data.
  • In Hungary
  • List of Countries
  • For 7 days
  • Water Temperature
  • Weather Map
  • News
  • Weather Widgets
  • user-avatar
    Login

    Hourly Weather Tahtamukay

    Today, 20 October, Sunday

    Time Temperature Precipitation Wind Pressure Humidity
    00:00 +18°C° 0 mm 1 mps 762 mmHg 71%
    01:00 +18°C° 0 mm 1 mps 762 mmHg 72%
    02:00 +16°C° 0 mm 1 mps 762 mmHg 73%
    03:00 +16°C° 0 mm 1 mps 762 mmHg 75%
    04:00 +15°C° 0 mm 1 mps 762 mmHg 75%
    05:00 +15°C° 0 mm 1 mps 763 mmHg 76%
    06:00 +15°C° 0 mm 1 mps 763 mmHg 77%
    07:00 +16°C° 0 mm 1 mps 763 mmHg 72%
    08:00 +18°C° 0 mm 1 mps 763 mmHg 67%
    09:00 +18°C° 0 mm 2 mps 763 mmHg 62%
    10:00 +20°C° 0 mm 2 mps 763 mmHg 56%
    11:00 +23°C° 0 mm 2 mps 763 mmHg 50%
    12:00 +24°C° 0 mm 2 mps 763 mmHg 45%
    13:00 +25°C° 0 mm 2 mps 763 mmHg 43%
    14:00 +25°C° 0 mm 3 mps 762 mmHg 42%
    15:00 +26°C° 0 mm 3 mps 762 mmHg 41%
    16:00 +24°C° 0 mm 3 mps 762 mmHg 45%
    17:00 +22°C° 0 mm 3 mps 762 mmHg 50%
    18:00 +21°C° 0 mm 3 mps 762 mmHg 54%
    19:00 +20°C° 0 mm 3 mps 762 mmHg 56%
    20:00 +19°C° 0 mm 3 mps 762 mmHg 58%
    21:00 +18°C° 0 mm 3 mps 762 mmHg 60%
    22:00 +18°C° 0 mm 3 mps 762 mmHg 63%
    23:00 +17°C° 0 mm 3 mps 762 mmHg 66%

    Tomorrow, 21 October, Monday

    Time Temperature Precipitation Wind Pressure Humidity
    00:00 +17°C° 0 mm 2 mps 762 mmHg 68%
    01:00 +16°C° 0 mm 2 mps 762 mmHg 70%
    02:00 +15°C° 0 mm 2 mps 762 mmHg 72%
    03:00 +15°C° 0 mm 2 mps 762 mmHg 74%
    04:00 +14°C° 0 mm 2 mps 762 mmHg 74%
    05:00 +14°C° 0 mm 2 mps 762 mmHg 75%
    06:00 +13°C° 0 mm 2 mps 763 mmHg 76%
    07:00 +14°C° 0 mm 2 mps 763 mmHg 71%
    08:00 +16°C° 0 mm 2 mps 763 mmHg 66%
    09:00 +17°C° 0 mm 3 mps 763 mmHg 61%
    10:00 +18°C° 0 mm 3 mps 763 mmHg 55%
    11:00 +20°C° 0 mm 3 mps 763 mmHg 50%
    12:00 +22°C° 0 mm 4 mps 763 mmHg 44%
    13:00 +23°C° 0 mm 4 mps 763 mmHg 41%
    14:00 +25°C° 0 mm 4 mps 763 mmHg 37%
    15:00 +25°C° 0 mm 5 mps 762 mmHg 34%
    16:00 +23°C° 0 mm 4 mps 762 mmHg 37%
    17:00 +21°C° 0 mm 4 mps 762 mmHg 41%
    18:00 +19°C° 0 mm 4 mps 762 mmHg 45%
    19:00 +19°C° 0 mm 4 mps 762 mmHg 50%
    20:00 +18°C° 0 mm 4 mps 762 mmHg 54%
    21:00 +17°C° 0 mm 4 mps 762 mmHg 59%
    22:00 +15°C° 0 mm 4 mps 762 mmHg 63%
    23:00 +14°C° 0 mm 4 mps 762 mmHg 68%

    Day after tomorrow, 22 October, Tuesday

    Time Temperature Precipitation Wind Pressure Humidity
    00:00 +14°C° 0 mm 3 mps 762 mmHg 72%
    01:00 +13°C° 0 mm 3 mps 762 mmHg 74%
    02:00 +13°C° 0 mm 3 mps 762 mmHg 77%
    03:00 +12°C° 0 mm 3 mps 762 mmHg 79%
    04:00 +13°C° 0 mm 2 mps 762 mmHg 81%
    05:00 +12°C° 0 mm 2 mps 763 mmHg 83%
    06:00 +12°C° 0 mm 2 mps 763 mmHg 84%
    07:00 +13°C° 0 mm 2 mps 763 mmHg 80%
    08:00 +13°C° 0 mm 3 mps 763 mmHg 75%
    09:00 +14°C° 0 mm 3 mps 763 mmHg 70%
    10:00 +17°C° 0 mm 3 mps 763 mmHg 64%
    11:00 +19°C° 0 mm 3 mps 763 mmHg 58%
    12:00 +20°C° 0 mm 3 mps 763 mmHg 52%
    13:00 +21°C° 0 mm 4 mps 763 mmHg 49%
    14:00 +22°C° 0 mm 4 mps 763 mmHg 46%
    15:00 +22°C° 0 mm 4 mps 762 mmHg 43%
    16:00 +21°C° 0 mm 4 mps 762 mmHg 47%
    17:00 +19°C° 0 mm 4 mps 762 mmHg 51%
    18:00 +18°C° 0 mm 4 mps 762 mmHg 54%
    19:00 +17°C° 0 mm 4 mps 762 mmHg 57%
    20:00 +15°C° 0 mm 4 mps 762 mmHg 59%
    21:00 +15°C° 0 mm 4 mps 762 mmHg 61%
    22:00 +14°C° 0 mm 3 mps 762 mmHg 63%
    23:00 +13°C° 0 mm 3 mps 762 mmHg 66%

    23 October, Wednesday

    Time Temperature Precipitation Wind Pressure Humidity
    00:00 +13°C° 0 mm 3 mps 762 mmHg 69%
    01:00 +12°C° 0 mm 3 mps 762 mmHg 71%
    02:00 +13°C° 0 mm 2 mps 762 mmHg 73%
    03:00 +12°C° 0 mm 2 mps 762 mmHg 75%
    04:00 +12°C° 0 mm 2 mps 762 mmHg 77%
    05:00 +12°C° 0 mm 2 mps 763 mmHg 78%
    06:00 +10°C° 0 mm 2 mps 763 mmHg 80%
    07:00 +12°C° 0 mm 2 mps 763 mmHg 75%
    08:00 +13°C° 0 mm 3 mps 763 mmHg 71%
    09:00 +14°C° 0 mm 3 mps 763 mmHg 66%
    10:00 +17°C° 0 mm 3 mps 762 mmHg 60%
    11:00 +18°C° 0 mm 4 mps 762 mmHg 54%
    12:00 +20°C° 0 mm 4 mps 762 mmHg 47%
    13:00 +21°C° 0 mm 4 mps 762 mmHg 44%
    14:00 +22°C° 0 mm 5 mps 762 mmHg 41%
    15:00 +22°C° 0 mm 5 mps 761 mmHg 38%
    16:00 +21°C° 0 mm 5 mps 761 mmHg 41%
    17:00 +19°C° 0 mm 4 mps 761 mmHg 44%
    18:00 +18°C° 0 mm 4 mps 761 mmHg 48%
    19:00 +17°C° 0 mm 4 mps 761 mmHg 49%
    20:00 +17°C° 0 mm 4 mps 761 mmHg 51%
    21:00 +15°C° 0 mm 4 mps 761 mmHg 53%
    22:00 +14°C° 0 mm 4 mps 761 mmHg 55%
    23:00 +13°C° 0 mm 3 mps 761 mmHg 58%

    24 October, Thursday

    Time Temperature Precipitation Wind Pressure Humidity
    00:00 +13°C° 0 mm 3 mps 761 mmHg 61%
    01:00 +12°C° 0 mm 3 mps 761 mmHg 63%
    02:00 +12°C° 0 mm 2 mps 761 mmHg 65%
    03:00 +12°C° 0 mm 2 mps 761 mmHg 67%
    04:00 +10°C° 0 mm 2 mps 761 mmHg 68%
    05:00 +10°C° 0 mm 2 mps 761 mmHg 69%
    06:00 +10°C° 0 mm 2 mps 761 mmHg 71%
    07:00 +12°C° 0 mm 2 mps 761 mmHg 66%
    08:00 +13°C° 0 mm 2 mps 761 mmHg 62%
    09:00 +14°C° 0 mm 2 mps 761 mmHg 58%
    10:00 +16°C° 0 mm 2 mps 760 mmHg 54%
    11:00 +18°C° 0 mm 2 mps 760 mmHg 50%
    12:00 +20°C° 0 mm 2 mps 760 mmHg 46%
    13:00 +20°C° 0 mm 2 mps 760 mmHg 45%
    14:00 +21°C° 0 mm 2 mps 759 mmHg 44%
    15:00 +21°C° 0 mm 2 mps 759 mmHg 43%
    16:00 +21°C° 0 mm 1 mps 759 mmHg 48%
    17:00 +19°C° 0 mm 1 mps 759 mmHg 53%
    18:00 +18°C° 0 mm 1 mps 759 mmHg 58%
    19:00 +16°C° 0 mm 1 mps 759 mmHg 59%
    20:00 +16°C° 0 mm 1 mps 759 mmHg 61%
    21:00 +15°C° 0 mm 1 mps 759 mmHg 63%
    22:00 +15°C° 0 mm 1 mps 759 mmHg 65%
    23:00 +14°C° 0 mm 1 mps 758 mmHg 67%

    25 October, Friday

    Time Temperature Precipitation Wind Pressure Humidity
    00:00 +14°C° 0 mm 1 mps 758 mmHg 69%
    01:00 +13°C° 0 mm 1 mps 758 mmHg 70%
    02:00 +13°C° 0 mm 1 mps 758 mmHg 72%
    03:00 +13°C° 0 mm 1 mps 758 mmHg 73%
    04:00 +12°C° 0 mm 1 mps 758 mmHg 74%
    05:00 +11°C° 0 mm 0 mps 758 mmHg 76%
    06:00 +11°C° 0 mm 0 mps 758 mmHg 77%
    07:00 +12°C° 0 mm 0 mps 758 mmHg 72%
    08:00 +13°C° 0 mm 0 mps 758 mmHg 67%
    09:00 +15°C° 0 mm 0 mps 758 mmHg 63%
    10:00 +19°C° 0 mm 1 mps 758 mmHg 58%
    11:00 +21°C° 0 mm 1 mps 758 mmHg 53%
    12:00 +22°C° 0 mm 1 mps 758 mmHg 49%
    13:00 +23°C° 0 mm 1 mps 758 mmHg 48%
    14:00 +23°C° 0 mm 1 mps 758 mmHg 47%
    15:00 +24°C° 0 mm 1 mps 757 mmHg 47%
    16:00 +22°C° 0 mm 1 mps 757 mmHg 50%
    17:00 +20°C° 0 mm 2 mps 757 mmHg 54%
    18:00 +19°C° 0 mm 2 mps 757 mmHg 58%
    19:00 +18°C° 0 mm 2 mps 757 mmHg 61%
    20:00 +17°C° 0 mm 2 mps 757 mmHg 64%
    21:00 +16°C° 0 mm 2 mps 757 mmHg 66%
    22:00 +16°C° 0 mm 2 mps 757 mmHg 70%
    23:00 +15°C° 0 mm 2 mps 757 mmHg 73%
    Show more